Location: Unspecified
(0.0000°N, 0.0000°E)
Time: 13:42:11
(UTC+00:00)

Altair - All Passes

Search period start: 02 February 2023 00:00
Search period end: 12 February 2023 00:00
Orbit: 1501 x 1683 km, 47.2° (Epoch: 01 February)

Date Brightness Start Highest point End Pass type
(mag) Time Alt. Az. Time Alt. Az. Time Alt. Az.
02 Feb - 02:05:45 10° NNE 02:09:06 12° NE 02:12:24 10° ENE visible
02 Feb - 04:04:32 10° NNW 04:14:33 67° NE 04:24:15 10° SE visible
02 Feb - 06:11:19 10° WNW 06:19:13 27° SW 06:26:58 10° S daylight
02 Feb - 14:51:42 10° S 14:59:01 26° SE 15:06:25 10° ENE daylight
02 Feb - 16:54:25 10° SW 17:03:32 63° NW 17:12:57 10° NNE daylight
02 Feb - 19:08:06 10° NW 19:08:55 10° NW 19:09:45 10° NW visible
03 Feb - 03:39:24 10° NNW 03:49:19 60° NE 03:58:58 10° SE visible
03 Feb - 05:45:38 10° WNW 05:53:59 30° SW 06:02:10 10° S visible
03 Feb - 14:26:57 10° S 14:33:48 23° SE 14:40:41 10° E daylight
03 Feb - 16:29:11 10° SW 16:38:21 70° NW 16:47:50 10° NNE daylight
03 Feb - 18:40:19 10° WNW 18:43:35 12° NW 18:46:54 10° NNW visible
04 Feb - 03:14:19 10° NNW 03:24:06 53° NE 03:33:38 10° SE visible
04 Feb - 05:20:01 10° WNW 05:28:45 34° SW 05:37:18 10° SSE visible
04 Feb - 14:02:17 10° S 14:08:34 20° SE 14:14:53 10° E daylight
04 Feb - 16:03:58 10° SW 16:13:11 79° NW 16:22:41 10° NE daylight
04 Feb - 18:13:49 10° WNW 18:18:16 14° NW 18:22:48 10° NNW daylight
05 Feb - 02:49:15 10° NNW 02:58:53 48° NE 03:08:16 10° ESE visible
05 Feb - 04:54:27 10° WNW 05:03:31 39° SW 05:12:24 10° SSE visible
05 Feb - 13:37:44 10° S 13:43:20 17° SE 13:48:56 10° E daylight
05 Feb - 15:38:48 10° SW 15:48:02 87° NW 15:57:30 10° NE daylight
05 Feb - 17:47:39 10° W 17:52:58 16° NW 17:58:24 10° N daylight
06 Feb - 02:24:14 10° NNW 02:33:39 43° NE 02:42:50 10° ESE visible
06 Feb - 04:28:57 10° WNW 04:38:18 43° SW 04:47:27 10° SSE visible
06 Feb - 13:13:18 10° SSE 13:18:04 15° SE 13:22:50 10° ESE daylight
06 Feb - 15:13:40 10° SW 15:22:52 84° SE 15:32:18 10° NE daylight
06 Feb - 17:21:42 10° W 17:27:41 19° NW 17:33:50 10° N daylight
07 Feb - 01:59:15 10° NNW 02:08:24 38° NE 02:17:22 10° ESE visible
07 Feb - 04:03:29 10° WNW 04:13:05 49° SW 04:22:29 10° SSE visible
07 Feb - 12:49:09 10° SSE 12:52:48 13° SE 12:56:26 10° ESE daylight
07 Feb - 14:48:32 10° SW 14:57:43 76° SE 15:07:04 10° NE daylight
07 Feb - 16:55:52 10° W 17:02:26 21° NW 17:09:10 10° N daylight
08 Feb - 01:34:18 10° NNW 01:43:09 34° NE 01:51:51 10° ESE visible
08 Feb - 03:38:04 10° NW 03:47:52 55° SW 03:57:27 10° SSE visible
08 Feb - 12:25:42 10° SSE 12:27:30 11° SE 12:29:18 10° SE daylight
08 Feb - 14:23:27 10° SSW 14:32:33 68° SE 14:41:49 10° NE daylight
08 Feb - 16:30:09 10° W 16:37:11 24° NW 16:44:24 10° N daylight
09 Feb - 01:09:23 10° N 01:17:53 30° NE 01:26:16 10° ESE visible
09 Feb - 03:12:42 10° NW 03:22:39 61° SW 03:32:24 10° SSE visible
09 Feb - 13:58:24 10° SSW 14:07:23 60° SE 14:16:31 10° NE daylight
09 Feb - 16:04:30 10° WSW 16:11:58 28° NW 16:19:36 10° N daylight
10 Feb - 00:44:32 10° N 00:52:37 27° NE 01:00:37 10° ESE visible
10 Feb - 02:47:22 10° NW 02:57:27 68° SW 03:07:19 10° SSE visible
10 Feb - 04:59:17 10° WSW 05:02:40 12° SW 05:06:03 10° SSW visible
10 Feb - 13:33:22 10° SSW 13:42:14 53° SE 13:51:12 10° NE daylight
10 Feb - 15:38:57 10° WSW 15:46:44 31° NW 15:54:43 10° N daylight
11 Feb - 00:19:43 10° N 00:27:20 24° NE 00:34:53 10° E night (unlit)
11 Feb - 02:22:05 10° NW 02:32:13 76° SW 02:42:12 10° SE visible
11 Feb - 04:32:35 10° WSW 04:37:21 14° SW 04:42:05 10° SSW visible
11 Feb - 13:08:22 10° SSW 13:17:04 47° SE 13:25:49 10° ENE daylight
11 Feb - 15:13:26 10° WSW 15:21:32 35° NW 15:29:49 10° NNE daylight
